Location: Fort Wayne
(41.1310°N, 85.1290°W)
Time: 08:38:39
(UTC-04:00)

Amateur Radio Satellites - All Passes

Search period start: 01 November 2014 08:08
Search period end: 02 November 2014 07:08
Location: Fort Wayne, 41.1310°N, 85.1290°W

Satellite Date Start Highest point End Downlink Frequencies (MHz)
Time Altitude Azimuth
SO-67 01 Nov 08:20:25 08:23:35 33° 97° (E) 08:26:44 435.3500 MHz FM
Saudisat 1A 01 Nov 08:39:44 08:41:08 11° 324° (NW) 08:42:32 436.775 MHz
STRAND 1 01 Nov 08:57:33 09:01:06 19° 268° (W) 09:04:41 ?
RS-15 01 Nov 09:03:34 09:12:35 29° 256° (WSW) 09:21:56 29.354 - 29.394 USB, Beacon 29.352 USB
MaSat-1 01 Nov 09:08:15 09:09:50 16° 253° (WSW) 09:11:23 437.345 MHz
JAS-2 01 Nov 09:17:54 09:22:46 18° 305° (NW) 09:27:36 435.800 - 435.900 CW/SSB, 435.910 FM
HO-68 01 Nov 09:20:39 09:25:18 18° 90° (E) 09:29:55 435.675 MHz FM
ISS 01 Nov 09:50:58 09:53:18 18° 132° (SE) 09:55:38 145.800 FM
SO-67 01 Nov 09:54:29 09:56:14 14° 293° (WNW) 09:57:59 435.3500 MHz FM
UKube-1 01 Nov 10:14:38 10:16:19 12° 91° (E) 10:18:00 145.840 MHz, 145.915 MHz
Sapphire 01 Nov 10:40:57 10:44:17 16° 41° (NE) 10:47:36 437.095 MHz 1200 baud AX-25 AFSK
Oscar 11 01 Nov 10:47:05 10:50:48 28° 96° (E) 10:54:30 145.825 FM, Beacon 2401.500 USB
KITSAT 1 01 Nov 10:58:00 11:05:25 42° 110° (ESE) 11:12:50 435.175 FM
SO-50 01 Nov 10:59:29 11:02:53 21° 111° (ESE) 11:06:21 436.795 FM
PCSat 01 Nov 11:01:56 11:06:16 23° 47° (NE) 11:10:33 145.825 MHz
HO-68 01 Nov 11:06:32 11:13:45 81° 288° (WNW) 11:20:55 435.675 MHz FM
FUNcube-1 01 Nov 11:06:45 11:09:40 18° 93° (E) 11:12:34 145.950 - 145.970 MHz USB
ISS 01 Nov 11:26:28 11:29:43 52° 328° (NNW) 11:32:59 145.800 FM
UKube-1 01 Nov 11:48:34 11:52:53 60° 287° (WNW) 11:57:10 145.840 MHz, 145.915 MHz
ZACube-1 01 Nov 11:59:24 12:03:36 76° 102° (ESE) 12:07:44 437.345 MHz
Sapphire 01 Nov 12:23:03 12:28:31 87° 61° (ENE) 12:33:56 437.095 MHz 1200 baud AX-25 AFSK
Oscar 11 01 Nov 12:23:19 12:26:53 26° 292° (WNW) 12:30:26 145.825 FM, Beacon 2401.500 USB
SO-50 01 Nov 12:38:50 12:43:08 43° 309° (NW) 12:47:34 436.795 FM
FUNcube-1 01 Nov 12:42:21 12:46:10 35° 289° (WNW) 12:49:56 145.950 - 145.970 MHz USB
PCSat 01 Nov 12:44:43 12:50:03 58° 246° (WSW) 12:55:20 145.825 MHz
KITSAT 1 01 Nov 12:52:59 13:00:42 48° 310° (NW) 13:08:29 435.175 FM
HO-68 01 Nov 12:56:11 13:00:22 17° 307° (NW) 13:04:33 435.675 MHz FM
Oscar 16 01 Nov 13:00:20 13:03:19 16° 61° (ENE) 13:06:17 437.025 USB, Beacon 2401.1428
JAS-1B 01 Nov 13:04:25 13:08:05 18° 59° (ENE) 13:11:48 435.800 - 435.900 CW/SSB
ISS 01 Nov 13:04:47 13:06:59 16° 347° (NNW) 13:09:12 145.800 FM
UOSAT-12 01 Nov 13:16:47 13:21:13 49° 117° (ESE) 13:25:46 437.025 FM, 437.400 FM
AO-Echo 01 Nov 13:27:26 13:30:02 14° 60° (ENE) 13:32:39 ?
Uribyol 2 01 Nov 13:35:25 13:38:11 15° 60° (ENE) 13:40:58 436.500 FM
ITAMSAT 1 01 Nov 13:43:14 13:46:22 16° 61° (ENE) 13:49:29 435.822 SSB
Saudisat 1A 01 Nov 13:44:55 13:47:17 14° 39° (NE) 13:49:38 436.775 MHz
Oscar 19 01 Nov 13:50:03 13:54:52 43° 70° (ENE) 13:59:42 437.125 CW, 437.150 USB
Sapphire 01 Nov 14:09:06 14:11:07 12° 258° (WSW) 14:13:08 437.095 MHz 1200 baud AX-25 AFSK
AO-27 01 Nov 14:29:01 14:33:53 42° 69° (ENE) 14:38:47 436.795 MHz FM
Oscar 16 01 Nov 14:36:58 14:42:05 69° 258° (WSW) 14:47:13 437.025 USB, Beacon 2401.1428
ISS 01 Nov 14:42:44 14:44:42 15° 8° (N) 14:46:39 145.800 FM
Gurwin Techsat 1B 01 Nov 14:50:46 14:55:32 35° 68° (ENE) 15:00:19 435.225 FM
JAS-1B 01 Nov 14:52:34 14:58:14 61° 258° (WSW) 15:03:55 435.800 - 435.900 CW/SSB
KITSAT 1 01 Nov 14:53:53 14:58:26 16° 335° (NNW) 15:02:59 435.175 FM
TMSAT-1 01 Nov 14:56:41 15:01:13 30° 67° (ENE) 15:05:46 436.925 FM
UOSAT-12 01 Nov 14:57:52 15:01:37 23° 316° (NW) 15:05:26 437.025 FM, 437.400 FM
AO-7 01 Nov 15:01:11 15:06:27 19° 50° (NE) 15:11:44 29.400 - 29.500 MHz
AO-Echo 01 Nov 15:03:05 15:08:04 76° 258° (WSW) 15:13:16 ?
Uribyol 2 01 Nov 15:11:46 15:17:00 77° 257° (WSW) 15:22:15 436.500 FM
ITAMSAT 1 01 Nov 15:20:04 15:25:16 69° 258° (WSW) 15:30:30 435.822 SSB
Saudisat 1A 01 Nov 15:23:02 15:27:29 89° 238° (WSW) 15:31:54 436.775 MHz
Oscar 19 01 Nov 15:30:22 15:34:22 23° 266° (W) 15:38:23 437.125 CW, 437.150 USB
AO-27 01 Nov 16:09:21 16:13:31 24° 266° (W) 16:17:44 436.795 MHz FM
ISS 01 Nov 16:19:00 16:22:07 35° 28° (NNE) 16:25:14 145.800 FM
Gurwin Techsat 1B 01 Nov 16:30:55 16:35:30 29° 265° (W) 16:40:07 435.225 FM
TMSAT-1 01 Nov 16:36:12 16:41:01 35° 263° (W) 16:45:52 436.925 FM
AO-7 01 Nov 16:49:43 16:57:59 80° 70° (ENE) 17:06:17 29.400 - 29.500 MHz
Uosat F 01 Nov 16:55:40 17:00:34 55° 72° (ENE) 17:05:30 435.120 FM
KITSAT 1 01 Nov 16:56:21 16:58:11 11° 7° (N) 17:00:01 435.175 FM
Hamsat 01 Nov 17:22:31 17:24:01 12° 63° (ENE) 17:25:31 145.90 MHz
JAS-2 01 Nov 17:42:35 17:48:40 47° 67° (ENE) 17:55:30 435.800 - 435.900 CW/SSB, 435.910 FM
ISS 01 Nov 17:55:48 17:58:45 29° 224° (SW) 18:01:42 145.800 FM
Uosat F 01 Nov 18:36:26 18:39:41 17° 268° (W) 18:42:57 435.120 FM
AO-7 01 Nov 18:45:39 18:51:34 21° 268° (W) 18:57:32 29.400 - 29.500 MHz
KITSAT 1 01 Nov 18:50:55 18:57:15 24° 37° (NE) 19:03:33 435.175 FM
SO-67 01 Nov 18:54:33 18:55:57 12° 66° (ENE) 18:57:22 435.3500 MHz FM
Hamsat 01 Nov 18:55:18 18:59:26 62° 259° (W) 19:03:35 145.90 MHz
OPAL 01 Nov 19:07:41 19:12:39 74° 105° (ESE) 19:17:35 ?
JAS-2 01 Nov 19:28:26 19:33:56 31° 268° (W) 19:40:05 435.800 - 435.900 CW/SSB, 435.910 FM
STRAND 1 01 Nov 19:28:27 19:31:51 18° 92° (E) 19:35:14 ?
SO-50 01 Nov 19:30:09 19:34:06 24° 45° (NE) 19:38:05 436.795 FM
HO-68 01 Nov 19:51:07 19:54:57 16° 52° (NE) 19:58:48 435.675 MHz FM
Oscar 10/S400 01 Nov 20:09:10 20:38:10 56° 193° (SSW) 04:30:59 145.825 - 145.975 CW/USB, Beacon 145.810 USB
AO-40 01 Nov 20:17:53 22:51:51 34° 202° (SSW) 02:44:17 Beacon 2401.320
SO-67 01 Nov 20:25:21 20:28:33 38° 262° (W) 20:31:48 435.3500 MHz FM
KITSAT 1 01 Nov 20:45:44 20:53:52 85° 60° (ENE) 21:01:56 435.175 FM
OPAL 01 Nov 20:48:22 20:50:55 14° 302° (WNW) 20:53:28 ?
STRAND 1 01 Nov 21:06:21 21:11:22 55° 288° (WNW) 21:16:22 ?
SO-50 01 Nov 21:10:13 21:14:55 50° 243° (WSW) 21:19:37 436.795 FM
UKube-1 01 Nov 21:10:47 21:12:20 12° 61° (ENE) 21:13:52 145.840 MHz, 145.915 MHz
RS-15 01 Nov 21:13:37 21:23:59 50° 111° (ESE) 21:34:15 29.354 - 29.394 USB, Beacon 29.352 USB
HO-68 01 Nov 21:34:21 21:41:29 76° 71° (ENE) 21:48:41 435.675 MHz FM
Oscar 11 01 Nov 21:42:25 21:45:47 23° 67° (ENE) 21:49:09 145.825 FM, Beacon 2401.500 USB
UOSAT-12 01 Nov 21:46:26 21:50:57 42° 51° (NE) 21:55:22 437.025 FM, 437.400 FM
FUNcube-1 01 Nov 22:03:20 22:06:16 17° 65° (ENE) 22:09:10 145.950 - 145.970 MHz USB
MaSat-1 01 Nov 22:41:12 22:45:04 73° 114° (ESE) 22:48:33 437.345 MHz
KITSAT 1 01 Nov 22:42:52 22:48:14 20° 258° (WSW) 22:53:36 435.175 FM
UKube-1 01 Nov 22:43:34 22:47:54 71° 257° (WSW) 22:52:17 145.840 MHz, 145.915 MHz
ZACube-1 01 Nov 22:55:18 22:59:45 61° 74° (ENE) 23:04:07 437.345 MHz
Oscar 11 01 Nov 23:17:56 23:21:47 32° 263° (W) 23:25:40 145.825 FM, Beacon 2401.500 USB
HO-68 01 Nov 23:24:55 23:29:51 20° 269° (W) 23:34:49 435.675 MHz FM
RS-15 01 Nov 23:25:45 23:36:18 51° 314° (NW) 23:46:55 29.354 - 29.394 USB, Beacon 29.352 USB
UOSAT-12 01 Nov 23:27:08 23:30:50 23° 248° (WSW) 23:34:28 437.025 FM, 437.400 FM
FUNcube-1 01 Nov 23:37:56 23:42:17 46° 261° (W) 23:46:34 145.950 - 145.970 MHz USB
ZACube-1 02 Nov 00:34:31 00:36:29 13° 269° (W) 00:38:25 437.345 MHz
Sapphire 02 Nov 01:26:48 01:27:24 10° 101° (E) 01:28:00 437.095 MHz 1200 baud AX-25 AFSK
RS-15 02 Nov 01:44:11 01:52:09 22° 346° (NNW) 01:00:15 29.354 - 29.394 USB, Beacon 29.352 USB
PCSat 02 Nov 01:44:57 01:48:33 18° 105° (ESE) 01:52:10 145.825 MHz
Oscar 19 02 Nov 01:03:04 01:05:53 15° 91° (E) 01:08:42 437.125 CW, 437.150 USB
JAS-1B 02 Nov 01:34:11 01:41:02 39° 98° (E) 01:49:01 435.800 - 435.900 CW/SSB
AO-27 02 Nov 01:43:33 01:46:24 15° 90° (E) 01:49:13 436.795 MHz FM
Oscar 16 02 Nov 01:48:51 01:53:42 42° 99° (E) 01:58:32 437.025 USB, Beacon 2401.1428
Sapphire 02 Nov 02:04:30 02:09:54 83° 118° (ESE) 02:15:21 437.095 MHz 1200 baud AX-25 AFSK
Gurwin Techsat 1B 02 Nov 02:08:31 02:11:05 14° 89° (E) 02:13:38 435.225 FM
AO-Echo 02 Nov 02:10:35 02:15:30 37° 97° (E) 02:20:19 ?
TMSAT-1 02 Nov 02:14:55 02:16:12 11° 88° (E) 02:17:29 436.925 FM
Uribyol 2 02 Nov 02:24:52 02:29:43 38° 98° (E) 02:34:30 436.500 FM
PCSat 02 Nov 02:26:05 02:31:26 61° 302° (WNW) 02:36:49 145.825 MHz
ITAMSAT 1 02 Nov 02:33:12 02:38:10 43° 99° (E) 02:43:05 435.822 SSB
Oscar 19 02 Nov 02:40:35 02:45:40 65° 287° (WNW) 02:50:43 437.125 CW, 437.150 USB
RS-15 02 Nov 03:01:17 03:09:55 25° 22° (NNE) 03:18:44 29.354 - 29.394 USB, Beacon 29.352 USB
AO-27 02 Nov 03:21:11 03:26:23 67° 287° (WNW) 03:31:32 436.795 MHz FM
JAS-1B 02 Nov 03:24:50 03:31:35 45° 292° (WNW) 03:39:32 435.800 - 435.900 CW/SSB
Oscar 16 02 Nov 03:28:46 03:32:48 24° 295° (WNW) 03:36:49 437.025 USB, Beacon 2401.1428
OPAL 02 Nov 03:46:03 03:49:18 17° 60° (ENE) 03:52:32 ?
Gurwin Techsat 1B 02 Nov 03:46:16 03:51:35 74° 286° (WNW) 03:56:52 435.225 FM
AO-Echo 02 Nov 03:49:35 03:54:06 29° 294° (WNW) 03:58:33 ?
Sapphire 02 Nov 03:50:26 03:54:01 18° 317° (NW) 03:57:38 437.095 MHz 1200 baud AX-25 AFSK
TMSAT-1 02 Nov 03:51:27 03:56:48 88° 284° (WNW) 04:02:05 436.925 FM
AO-7 02 Nov 03:52:15 03:58:56 26° 94° (E) 04:05:34 29.400 - 29.500 MHz
Uosat F 02 Nov 04:04:40 04:07:53 17° 92° (E) 04:11:05 435.120 FM
Uribyol 2 02 Nov 04:04:42 04:08:59 27° 295° (WNW) 04:13:15 436.500 FM
ITAMSAT 1 02 Nov 04:13:15 04:17:23 24° 296° (WNW) 04:21:29 435.822 SSB
PCSat 02 Nov 04:13:52 04:15:59 12° 323° (NW) 04:18:07 145.825 MHz
Saudisat 1A 02 Nov 04:30:02 04:33:31 23° 112° (ESE) 04:37:01 436.775 MHz
PANSAT 02 Nov 05:00:36 05:02:15 12° 181° (S) 05:03:53 not established
RS-15 02 Nov 05:14:01 05:25:06 63° 51° (NE) 05:36:37 29.354 - 29.394 USB, Beacon 29.352 USB
OPAL 02 Nov 05:22:39 05:27:42 62° 256° (WSW) 05:32:43 ?
Gurwin Techsat 1B 02 Nov 05:30:20 05:30:36 10° 304° (WNW) 05:30:52 435.225 FM
TMSAT-1 02 Nov 05:33:54 05:35:54 12° 302° (WNW) 05:37:53 436.925 FM
JAS-2 02 Nov 05:36:25 05:43:59 48° 97° (E) 05:51:10 435.800 - 435.900 CW/SSB, 435.910 FM
Hamsat 02 Nov 05:41:24 05:44:44 22° 94° (E) 05:48:04 145.90 MHz
Uosat F 02 Nov 05:42:04 05:47:00 56° 288° (WNW) 05:51:54 435.120 FM
AO-7 02 Nov 05:44:02 05:52:17 69° 292° (WNW) 06:00:32 29.400 - 29.500 MHz
STRAND 1 02 Nov 05:44:06 05:48:19 26° 66° (ENE) 05:52:33 ?
Saudisat 1A 02 Nov 06:08:48 06:12:52 37° 310° (NW) 06:16:59 436.775 MHz
SO-67 02 Nov 06:49:37 06:51:22 13° 92° (E) 06:53:07 435.3500 MHz FM
